Other Public Products
Issued by NWS Charleston, SC

Current Version | Previous Version | Text Only | Print | Product List | Glossary Off
Versions: 1 2 3 4 5 6 7 8 9 10 11 12 13 14 15 16 17 18 19 20 21 22 23 24 25 26 27 28 29 30 31 32 33 34 35 36 37 38 39 40 41 42 43 44 45 46 47 48 49 50

000
FPUS82 KCHS 281312
OPUCHS

TEST...KCHS/KSAV Gateway Observations...TEST
National Weather Service Charleston SC
900 AM EDT SUN MAY 28 2017

NOTE: "fair" indicates few or no clouds below 12,000 feet with no
significant weather and/or obstructions to visibility.

SCZ050-WAZ558-NCZ071-TXZ119-213-PAZ071-DCZ001-FLZ074-172-MI076-
NYZ176-178-MAZ016-IL014-TNZ027-NJZ106-GAZ044-MD014-281400-

...Gateway Observations for Charleston International...

CITY           SKY/WX    TMP DP  RH WIND       PRES   REMARKS
Chas Airport   MOSUNNY   80  66  62 W13       29.93R
Seattle        CLEAR     58  49  72 CALM      30.10R
Charlotte      PTSUNNY   73  63  70 W8        29.92R
Dallas DFW     LGT RAIN  73  70  90 E9        29.91R FOG
Dallas Love    LGT RAIN  72  69  90 NE8       29.92R FOG
Philladelphia  MOSUNNY   69  61  75 E6        29.91F
Wash National  PTSUNNY   68  60  75 CALM      29.89S
Baltimore      MOSUNNY   67  60  78 E7        29.88F
Miami          MOSUNNY   82  68  62 VRB3      30.04R
Detroit        CLOUDY    65  52  62 E8        29.79F
Newark         CLOUDY    60  58  92 VRB3      29.94S FOG
Laguardia      CLOUDY    62  58  86 SE5       29.94S FOG
J F K          PTSUNNY   65  58  78 S7        29.96R
Boston Logan   PTSUNNY   62  56  80 S6        29.97F
Ft. Lauderdale MOSUNNY   80  69  69 NW5       30.03R
Chicago O`Hare CLOUDY    65  57  75 CALM      29.74R
Chicago Midway PTSUNNY   66  60  81 S6        29.73S
Houston Bush   PTSUNNY   81  75  82 VRB6      29.91R
Houston Hobby  PTSUNNY   80  76  87 CALM      29.90R
Nashville      CLOUDY    66  63  90 CALM      29.90F
Atlanta        LGT RAIN  66  65  96 SW9       30.00R

$$

GAZ044-118-TXZ119-213-NCZ071-DCZ001-MDZ014-506-PAZ021-071-NJZ106-
NYZ176-178-MAZ106-OHZ011-021-055-MIZ076-KYZ091-ILZ014-INZ047-
MNZ060-ONZ431-281400-

...Gateway Observations for Savannah International...

CITY           SKY/WX    TMP DP  RH WIND       PRES   REMARKS
Savannah Arpt  PTSUNNY   79  65  62 W10       29.98R
Atlanta        LGT RAIN  66  65  96 SW9       30.00R
Charlotte      PTSUNNY   73  63  70 W8        29.92R
Dallas DFW     LGT RAIN  73  70  90 E9        29.91R FOG
Houston Bush   PTSUNNY   81  75  82 VRB6      29.91R
Wash National  PTSUNNY   68  60  75 CALM      29.89S
Wash Dulles    PTSUNNY   66  60  81 E3        29.89R
Baltimore      MOSUNNY   67  60  78 E7        29.88F
Philadelphia   MOSUNNY   69  61  75 E6        29.91F
Newark         CLOUDY    60  58  92 VRB3      29.94S FOG
Laguardia      CLOUDY    62  58  86 SE5       29.94S FOG
J F K          PTSUNNY   65  58  78 S7        29.96R
Boston         PTSUNNY   62  56  80 S6        29.97F
Pittsburg      CLOUDY    64  62  93 SE5       29.82R FOG
Akron          CLOUDY    68  60  75 SE7       29.80F
Cleveland      PTSUNNY   71  61  70 SE8       29.79F
Cincinnati     CLOUDY    65  62  90 SW12G21   29.80R
Columbus       MOSUNNY   67  63  85 S10       29.77F
Detroit        CLOUDY    65  52  62 E8        29.79F
Chicago O`Hare CLOUDY    65  57  75 CALM      29.74R
Minneapolis    MOSUNNY   61  48  62 W12       29.73R
Indianapolis   CLOUDY    66  62  87 SW10      29.75R
Toronto Canada PTSUNNY   59  55  88 SE3       29.86S

$$




USA.gov is the U.S. government's official web portal to all federal, state and local government web resources and services.